Starlink 33816

operational
NORAD ID: 63677 Int'l Des: 2025-085 Owner: SPXS Country: US Constellation: starlink
LEOCIRCULAR

Starlink 33816について

説明を読み込み中...

リアルタイム位置

3D地球を読み込み中...

次回通過

高度履歴

Altitude vs Time

uPlot chart will show altitude changes over time

軌道要素

1 63677U 25085P 26035.50874431 .00023741 00000-0 86870-3 0 9996
2 63677 42.9968 218.4523 0000758 260.6118 99.4648 15.27609792 43890
Epoch: Feb 4, 2026 • Age: 25 hours

現在のステータス

高度 493.9 km
速度 7.62 km/s
衛星直下点 -38.84°S, 177.69°W
打ち上げ日 Apr 28, 2025
運用期間 0.7 years
タイプ internet

技術仕様

分類 Payload
質量 575.00 kg
乾燥質量 530.00 kg
総質量 575.00 kg
長さ 0.30 m
直径 4.10 m
スパン 29.00 m
形状 Box + pan
製造者 SPXS
バスタイプ Starlink V2MO
フェーズステータス In Orbit
所有者/国 SPXS/US

大規模コンステレーション

Loading constellations...